[[{"header":{"parameterUnit":"m.s-1","parameterCategory":1,"la1":30.2991,"la2":30.254,"lo1":-89.0895,"lo2":-89.0444,"dy":0.0017,"dx":0.0017,"nx":28,"ny":28,"refTime":"2026-02-08T09:00:00:Z","depth":0,"parameterNumber":2,"parameterNumberName":"U-component_of_WINDS"},"data":[0,0,0,0,0,0,0,0,0,0,0,0,0,0,0,0,0,0,0,0,0,0,0,0,0,0,0,0,0,0,0,0,0,0,0,0,0,0,0,0,0,0,0,0,0,0,0,0,0,0,0,0,0,0,0,0,0,0,-2.4827,-2.4827,0,-2.4866,-2.4866,-2.4867,-2.4823,-2.4822,-2.482,-2.4818,-2.486,-2.4862,-2.4865,0,0,0,0,0,0,0,0,0,0,0,0,0,-2.4716,-2.4719,-2.4826,-2.4827,-2.4827,-2.4866,-2.4866,-2.4867,-2.4824,-2.4822,-2.482,-2.4818,-2.4859,-2.4862,-2.4865,0,0,0,0,0,0,0,0,0,0,0,0,0,-2.4761,-2.4719,-2.4826,-2.481,-2.4809,-2.4866,-2.4866,-2.4867,-2.4824,-2.4822,-2.4819,-2.4817,-2.4858,-2.4862,-2.4866,-2.494,0,0,-2.4878,-2.4879,0,0,0,0,0,0,0,0,-2.4758,-2.4765,-2.4812,-2.4812,-2.4811,-2.4837,-2.4843,-2.4892,-2.4825,-2.4819,-2.4818,-2.4816,-2.4854,-2.4858,-2.4871,-2.4942,-2.4944,-2.4878,-2.4881,-2.4882,-2.4883,0,0,0,0,0,0,0,-2.4755,-2.4763,-2.4842,-2.4813,-2.4812,-2.4802,-2.4806,-2.4852,-2.485,-2.4819,-2.4816,-2.4821,-2.4853,-2.4868,-2.4872,-2.4944,-2.4878,-2.4882,-2.4884,-2.4886,-2.5079,-2.5082,0,0,0,0,0,0,-2.4754,-2.4761,-2.4841,-2.4843,-2.4778,-2.4806,-2.481,-2.4831,-2.4849,-2.485,-2.4823,-2.4819,-2.4862,-2.4867,-2.4873,-2.4961,-2.4882,-2.4886,-2.4888,-2.5076,-2.508,-2.5083,0,0,0,0,0,0,-2.4752,-2.4761,-2.4839,-2.4801,-2.481,-2.4811,-2.4835,-2.4833,-2.4847,-2.4852,-2.4852,-2.4838,-2.486,-2.4868,-2.4924,-2.4962,-2.4888,-2.4891,-2.5073,-2.5077,-2.5081,-2.5138,0,0,0,0,0,0,-2.4749,-2.4761,-2.4788,-2.4802,-2.4813,-2.4888,-2.4837,-2.4836,-2.4854,-2.4849,-2.4866,-2.4867,-2.4859,-2.4918,-2.4928,-2.4966,-2.4894,-2.507,-2.5075,-2.508,-2.5133,-2.5144,-2.5153,0,0,0,0,0,-2.4745,-2.4803,-2.479,-2.48,-2.4847,-2.4891,-2.4897,-2.4886,-2.4857,-2.4885,-2.4889,-2.4866,-2.4957,-2.4924,-2.4935,-2.4975,-2.5067,-2.5073,-2.508,-2.5128,-2.5142,-2.5153,0,0,0,0,0,0,-2.4792,-2.4804,-2.479,-2.4854,-2.4872,-2.4883,-2.4918,-2.4901,-2.4927,-2.4921,-2.4908,-2.4912,-2.4972,-2.498,-2.4943,-2.5049,-2.5007,-2.5016,-2.5041,-2.5054,-2.5064,-2.506,-2.4898,0,0,0,0,0,-2.4811,-2.4845,-2.4853,-2.4909,-2.4919,-2.4917,-2.4936,-2.4927,-2.4945,-2.4952,-2.496,-2.4979,-2.5012,-2.5033,-2.5064,-2.5135,-2.5138,-2.5168,-2.5178,-2.5187,-2.5193,-2.5232,-2.5246,-2.5103,-2.5103,-2.5103,0,0,-2.4848,-2.4858,-2.4881,-2.4919,-2.4931,-2.4968,-2.4923,-2.4964,-2.4991,-2.4958,-2.5011,-2.5018,-2.5039,-2.5103,-2.5131,-2.5111,-2.5234,-2.5194,-2.5201,-2.5203,-2.524,-2.5253,-2.5265,-2.5107,-2.5107,-2.5106,0,0,-2.4934,-2.4946,-2.4993,-2.5008,-2.5028,-2.5027,-2.5039,-2.5054,-2.5057,-2.511,-2.5087,-2.512,-2.5177,-2.5193,-2.5208,-2.5304,-2.5284,-2.5315,-2.5367,-2.5405,-2.5416,-2.5426,-2.546,-2.5472,-2.5322,-2.5322,-2.5322,0,-2.4977,-2.5031,-2.502,-2.5062,-2.508,-2.5054,-2.5102,-2.5117,-2.5146,-2.516,-2.5137,-2.5209,-2.522,-2.5288,-2.5312,-2.5325,-2.5339,-2.5311,-2.5415,-2.5425,-2.5434,-2.5466,-2.5479,-2.5326,-2.5325,-2.5325,-2.5325,0,-2.5083,-2.5121,-2.5157,-2.5186,-2.5209,-2.5254,-2.5251,-2.5276,-2.5266,-2.5268,-2.5324,-2.5338,-2.5371,-2.5387,-2.5377,-2.5454,-2.5441,-2.5417,-2.5375,-2.5451,-2.5481,-2.5493,-2.5331,-2.533,-2.5329,-2.5328,0,0,-2.5197,-2.5222,-2.5235,-2.5249,-2.5271,-2.53,-2.5345,-2.5378,-2.5399,-2.5422,-2.5459,-2.551,-2.5488,-2.5506,-2.5499,-2.5533,-2.5608,-2.5505,-2.5505,-2.5522,-2.5693,-2.5709,-2.5724,-2.5596,-2.5598,-2.56,-2.5691,0,-2.5283,-2.536,-2.5353,-2.5427,-2.5462,-2.5439,-2.5479,-2.5497,-2.5501,-2.5532,-2.5537,-2.5573,-2.5542,-2.5553,-2.5586,-2.5591,-2.5641,-2.5585,-2.563,-2.5632,-2.5624,-2.5739,-2.5756,-2.5841,-2.5703,-2.5705,-2.5706,0,-2.5392,-2.5418,-2.5495,-2.5514,-2.5528,-2.5564,-2.5594,-2.5624,-2.5646,-2.5646,-2.5668,-2.5656,-2.5703,-2.5662,-2.5727,-2.5688,-2.5707,-2.5714,-2.5717,-2.5719,-2.5672,-2.5743,-2.5868,-2.5881,-2.5725,-2.5723,-2.5722,0,-2.5466,-2.5521,-2.5575,-2.5587,-2.561,-2.5636,-2.5647,-2.5665,-2.5686,-2.5714,-2.5727,-2.576,-2.5778,-2.5804,-2.5802,-2.5772,-2.5868,-2.5826,-2.587,-2.587,-2.5888,-2.5887,-2.6017,-2.5904,-2.5904,-2.5903,-2.5903,0,-2.5561,-2.5609,-2.5608,-2.5641,-2.5695,-2.5688,-2.5741,-2.575,-2.5767,-2.5802,-2.5785,-2.5818,-2.5814,-2.5848,-2.5847,-2.5901,-2.5909,-2.5911,-2.591,-2.5912,-2.5911,-2.5922,-2.5915,-2.5907,-2.5906,-2.5905,-2.5905,0,-2.5651,-2.5653,-2.571,-2.5727,-2.5733,-2.5772,-2.5788,-2.5819,-2.5823,-2.5867,-2.5878,-2.5884,-2.5923,-2.5924,-2.5969,-2.5968,-2.6034,-2.6027,-2.6026,-2.6024,-2.6067,-2.6062,-2.6207,-2.6225,-2.6102,-2.6103,-2.6104,0,-2.5711,-2.5747,-2.5769,-2.5791,-2.5804,-2.584,-2.5861,-2.5857,-2.588,-2.5909,-2.5938,-2.5975,-2.6005,-2.6069,-2.6078,-2.6113,-2.6105,-2.6154,-2.611,-2.6111,-2.6105,-2.6102,-2.6106,-2.6161,-2.6163,-2.6164,-2.6165,0,-2.5816,-2.5816,-2.5847,-2.5879,-2.5906,-2.5931,-2.5954,-2.5974,-2.5973,-2.6,-2.604,-2.6063,-2.611,-2.6148,-2.6182,-2.6194,-2.618,-2.6179,-2.6191,-2.6191,-2.6189,-2.619,-2.6047,-2.6175,-2.6174,-2.6173,-2.6172,-2.6172,-2.5892,-2.5923,-2.5944,-2.598,-2.5998,-2.6021,-2.6052,-2.606,-2.6093,-2.613,-2.6127,-2.6171,-2.6194,-2.6239,-2.6255,-2.629,-2.6273,-2.629,-2.6294,-2.6298,-2.6302,-2.6186,-2.6297,-2.6296,-2.6296,-2.6296,-2.6296,0,-2.5995,-2.6008,-2.6041,-2.6075,-2.6104,-2.6089,-2.6115,-2.614,-2.6179,-2.6202,-2.6232,-2.6279,-2.6316,-2.633,-2.6366,-2.6392,-2.6387,-2.6402,-2.6399,-2.6402,-2.6315,-2.6301,-2.6406,-2.6406,-2.6406,-2.6406,-2.6406,-2.6406,-2.6051,-2.6104,-2.6107,-2.6169,-2.6182,-2.6225,-2.6242,-2.6263,-2.6281,-2.6334,-2.6365,-2.6374,-2.6393,-2.6432,-2.6466,-2.6469,-2.6483,-2.6501,-2.6501,-2.6419,-2.6408,-2.6397,-2.6384,-2.6504,-2.6504,-2.6584,-2.6585,-2.6586]},{"header":{"parameterUnit":"m.s-1","parameterCategory":1,"la1":30.2991,"la2":30.254,"lo1":-89.0895,"lo2":-89.0444,"dy":0.0017,"dx":0.0017,"nx":28,"ny":28,"refTime":"2026-02-08T09:00:00:Z","depth":0,"parameterNumber":3,"parameterNumberName":"V-component_of_WINDS"},"data":[0,0,0,0,0,0,0,0,0,0,0,0,0,0,0,0,0,0,0,0,0,0,0,0,0,0,0,0,0,0,0,0,0,0,0,0,0,0,0,0,0,0,0,0,0,0,0,0,0,0,0,0,0,0,0,0,0,0,2.8069,2.8069,0,2.8109,2.8109,2.811,2.8181,2.8183,2.8184,2.8185,2.822,2.822,2.822,0,0,0,0,0,0,0,0,0,0,0,0,0,2.805,2.805,2.8069,2.8069,2.807,2.8109,2.8109,2.811,2.8181,2.8183,2.8184,2.8186,2.8221,2.822,2.822,0,0,0,0,0,0,0,0,0,0,0,0,0,2.8071,2.805,2.8068,2.811,2.8114,2.8109,2.8109,2.811,2.8181,2.8183,2.8185,2.8187,2.8221,2.822,2.822,2.8175,0,0,2.8218,2.8218,0,0,0,0,0,0,0,0,2.8069,2.8071,2.8103,2.8107,2.8112,2.8142,2.8116,2.8132,2.818,2.8155,2.8185,2.8188,2.8192,2.8194,2.8197,2.8177,2.8178,2.8218,2.8218,2.8218,2.8217,0,0,0,0,0,0,0,2.8068,2.807,2.8084,2.8104,2.8109,2.8125,2.8131,2.8119,2.8161,2.8157,2.8163,2.8167,2.8195,2.8197,2.8198,2.8179,2.8218,2.8218,2.8217,2.8217,2.8126,2.8124,0,0,0,0,0,0,2.8061,2.8068,2.8083,2.8086,2.8095,2.8124,2.813,2.813,2.8162,2.8169,2.8165,2.817,2.8197,2.8199,2.82,2.8151,2.8218,2.8217,2.8217,2.8128,2.8126,2.8123,0,0,0,0,0,0,2.806,2.8062,2.8081,2.8078,2.8082,2.8122,2.8122,2.813,2.8133,2.8168,2.8175,2.816,2.8199,2.8201,2.8182,2.8154,2.8217,2.8216,2.8131,2.8128,2.8125,2.8053,0,0,0,0,0,0,2.8059,2.8061,2.8045,2.8078,2.8082,2.8063,2.812,2.8129,2.8132,2.8139,2.8165,2.8171,2.8201,2.8182,2.8181,2.8154,2.8216,2.8133,2.8129,2.8126,2.8058,2.8047,2.8039,0,0,0,0,0,2.8058,2.8021,2.8044,2.8045,2.8063,2.8062,2.8064,2.8101,2.813,2.8114,2.8137,2.817,2.8157,2.818,2.8179,2.8151,2.8135,2.8131,2.8126,2.8062,2.8049,2.8039,0,0,0,0,0,0,2.7982,2.8026,2.8052,2.8024,2.8039,2.8074,2.8055,2.8086,2.8091,2.8097,2.814,2.8146,2.8121,2.8134,2.8159,2.8111,2.8152,2.8146,2.8103,2.8091,2.8082,2.8079,2.8216,0,0,0,0,0,2.7962,2.7959,2.7997,2.7969,2.7976,2.8014,2.8014,2.8042,2.8058,2.8063,2.8085,2.8098,2.8097,2.8095,2.8096,2.806,2.8067,2.8041,2.8032,2.8024,2.8018,2.8002,2.7991,2.8108,2.8108,2.8108,0,0,2.7921,2.7945,2.7939,2.7955,2.7969,2.7963,2.8018,2.8009,2.8005,2.8061,2.8046,2.8062,2.8079,2.8052,2.8042,2.8063,2.7988,2.8018,2.8011,2.801,2.7996,2.7985,2.7975,2.8105,2.8105,2.8106,0,0,2.7843,2.786,2.784,2.7854,2.7877,2.7903,2.7898,2.7929,2.7942,2.7928,2.797,2.7966,2.7962,2.7974,2.7979,2.7908,2.7939,2.7907,2.7856,2.784,2.7831,2.7823,2.7798,2.7789,2.7902,2.7901,2.7901,0,2.7788,2.7782,2.7825,2.7815,2.782,2.7874,2.7853,2.7864,2.7884,2.7887,2.7911,2.791,2.7925,2.7902,2.7886,2.7888,2.7883,2.7904,2.7829,2.7822,2.7815,2.7792,2.7782,2.7897,2.7898,2.7898,2.7899,0,2.7714,2.771,2.7691,2.7712,2.7716,2.77,2.7739,2.7738,2.7765,2.7788,2.7773,2.7794,2.7801,2.7798,2.7823,2.7779,2.7792,2.7822,2.7863,2.7799,2.7778,2.7769,2.7892,2.7893,2.7894,2.7895,0,0,2.7587,2.7635,2.7627,2.7638,2.7668,2.7665,2.7652,2.7661,2.7659,2.7671,2.7661,2.7659,2.7688,2.7694,2.7721,2.7707,2.7651,2.7739,2.774,2.7722,2.7604,2.7581,2.757,2.7672,2.7671,2.7669,2.7603,0,2.7515,2.7497,2.7536,2.7509,2.7506,2.7558,2.7546,2.7563,2.7585,2.7584,2.7608,2.7606,2.7644,2.7648,2.7636,2.766,2.7627,2.7665,2.7662,2.7662,2.7657,2.7559,2.7535,2.7471,2.7595,2.7593,2.7592,0,2.7428,2.744,2.7413,2.7446,2.7446,2.7436,2.7448,2.7448,2.7468,2.7485,2.7493,2.7526,2.7515,2.7556,2.7541,2.7566,2.7568,2.7579,2.7578,2.7578,2.7623,2.7557,2.7451,2.7442,2.758,2.7581,2.7582,0,2.7339,2.7348,2.7333,2.7341,2.7379,2.7371,2.7386,2.7409,2.7412,2.7423,2.7426,2.7434,2.7438,2.7443,2.7478,2.7504,2.7459,2.7502,2.7472,2.7471,2.746,2.746,2.7352,2.746,2.7461,2.7461,2.7461,0,2.7255,2.7236,2.7294,2.7285,2.7266,2.7311,2.729,2.731,2.733,2.7325,2.737,2.7364,2.741,2.7409,2.7436,2.742,2.7422,2.7435,2.7442,2.7431,2.7429,2.7432,2.7437,2.7458,2.7459,2.7459,2.746,0,2.7152,2.719,2.7177,2.7216,2.7225,2.7209,2.7242,2.7235,2.7261,2.7254,2.7255,2.7295,2.7296,2.7332,2.734,2.7358,2.7331,2.7346,2.7325,2.733,2.7298,2.7301,2.7188,2.7176,2.7291,2.729,2.7289,0,2.7095,2.7083,2.7121,2.7122,2.7136,2.7137,2.7142,2.7186,2.7189,2.7213,2.7202,2.7208,2.7215,2.7215,2.7243,2.725,2.7266,2.7226,2.7267,2.7257,2.7266,2.7266,2.7266,2.7217,2.7216,2.7215,2.7214,0,2.6991,2.7012,2.7018,2.7031,2.7037,2.7049,2.7063,2.7061,2.711,2.7111,2.7115,2.712,2.713,2.7135,2.7148,2.7162,2.7196,2.7201,2.7195,2.7183,2.7171,2.7178,2.7302,2.7203,2.7204,2.7205,2.7205,2.7206,2.691,2.6902,2.6929,2.6935,2.6951,2.6965,2.696,2.6987,2.6991,2.7005,2.703,2.703,2.7052,2.7072,2.7084,2.7084,2.7104,2.7094,2.7092,2.7089,2.7083,2.7171,2.7086,2.7087,2.7087,2.7087,2.7088,0,2.6809,2.683,2.6835,2.6856,2.6861,2.6895,2.6913,2.6914,2.6914,2.6933,2.694,2.6944,2.695,2.698,2.6989,2.6983,2.6999,2.6984,2.6985,2.6988,2.7064,2.7069,2.6972,2.6972,2.6972,2.6972,2.6972,2.6972,2.6757,2.6746,2.677,2.6767,2.6787,2.6789,2.6797,2.681,2.6825,2.6829,2.6835,2.6855,2.6879,2.689,2.6897,2.6906,2.6907,2.6887,2.69,2.6971,2.6982,2.6993,2.6998,2.6887,2.6887,2.6824,2.6824,2.6823]}]]